Location: Wiesbaden
(50.0830°N, 8.2500°E)
Time: 20:56:00
(UTC+02:00)

ISS - Pass Details

Date: 20 April 2026
Orbit: 414 x 424 km, 51.6° (Epoch: 12 May)

Event Time Altitude Azimuth Distance (km) Brightness Sun altitude
Exits shadow 05:27:57 - 200° (SSW) 1,726 -1.1 -9.0°
Reaches altitude 10° 05:28:39 10° 193° (SSW) 1,494 -1.4 -8.9°
Maximum altitude 05:31:15 21° 142° (SE) 1,004 -1.7 -8.6°
Drops below altitude 10° 05:33:52 10° 91° (E) 1,506 0.1 -8.2°
Sets 05:36:18 0° 75° (ENE) 2,377 2.0 -7.9°
